Retour au catalogue

TITAN 4B DEB

ActifLEO
NORAD 27469·DEBRIS·🇺🇸 United States

Lancé Aug 17, 2000 depuis Vandenberg Space Force Base

Loading…

Prochains Passages (prochaines 24 heures)

TLE

FraisSource: Space-Track

Époque: Sep 13, 2026, 21:47 UTC

1 27469U 00047C   26256.90790917  .00000157  00000-0  26625-4 0  9990
2 27469  67.9944  81.7716 0066603 272.0969  87.2545 14.91880420312964

Suivez TITAN 4B DEB en temps réel avec AllMySat

Download on the App Store